CW2654 Weather Reports


time (UTC)temp
C
wind
direction
speed
KPH
gust
KPH
rain 1hr
cm
rain 24hr
cm
rain mn
cm
humidity
%
barometer
mb
20260906081604 11 0 0.0 0.0 0.00 0.00 0.00 98 1015.5
20260906080058 11 0 0.0 4.8 0.00 0.00 0.00 98 1015.4
20260906074611 11 104 1.6 4.8 0.00 0.00 0.00 98 1015.5
20260906073110 11 0 0.0 3.2 0.00 0.00 0.00 98 1015.6
20260906071558 11 104 3.2 4.8 0.00 0.00 0.00 98 1015.7
20260906070122 11 104 0.0 4.8 0.00 0.00 0.00 97 1015.7
20260906064602 11 104 1.6 3.2 0.00 0.00 0.00 97 1015.7
20260906063059 11 0 0.0 3.2 0.00 0.00 0.00 97 1015.7
20260906061635 11 0 1.6 6.4 0.00 0.00 0.00 97 1015.9
20260906060109 11 104 1.6 6.4 0.00 0.00 0.00 97 1015.9
20260906054602 11 104 1.6 4.8 0.00 0.00 0.00 97 1015.8
20260906053101 11 104 1.6 4.8 0.00 0.00 0.00 97 1015.6
20260906051606 11 104 3.2 6.4 0.00 0.00 0.00 97 1015.9
20260906050116 11 104 1.6 4.8 0.00 0.00 0.00 96 1016.0
20260906044603 11 104 1.6 9.7 0.00 0.00 0.00 96 1016.2
20260906043110 11 94 3.2 6.4 0.00 0.00 0.00 96 1016.2
20260906041558 11 92 3.2 4.8 0.00 0.00 0.00 96 1016.3
20260906040119 11 92 3.2 4.8 0.00 0.00 0.00 96 1016.2
20260906034602 11 92 3.2 6.4 0.00 0.00 0.00 95 1016.1
20260906033101 12 84 3.2 8.0 0.00 0.00 0.00 95 1016.0
20260906031612 12 61 3.2 6.4 0.00 0.00 0.00 95 1015.8
20260906030109 12 55 1.6 6.4 0.00 0.00 0.00 94 1015.8
20260906024603 13 25 3.2 4.8 0.00 0.00 0.00 93 1015.6
20260906023125 13 360 3.2 4.8 0.00 0.00 0.00 90 1015.7
20260906021600 15 0 0.0 3.2 0.00 0.00 0.00 87 1015.6
20260906020100 16 0 0.0 3.2 0.00 0.00 0.00 83 1015.8
20260906014629 16 0 0.0 3.2 0.00 0.00 0.00 80 1015.8
20260906013103 17 352 1.6 8.0 0.00 0.00 0.00 77 1015.8
20260906011602 17 360 1.6 6.4 0.00 0.00 0.00 70 1015.9
20260906004609 18 0 1.6 8.0 0.00 0.00 0.00 72 1016.0
20260906003109 18 67 1.6 9.7 0.00 0.00 0.00 72 1015.9
20260906001602 18 9 1.6 8.0 0.00 0.00 0.00 70 1016.1
20260906000109 18 11 0.0 6.4 0.00 0.00 0.00 69 1016.1
20260905234602 19 0 0.0 6.4 0.00 0.05 0.00 72 1015.8
20260905233106 19 360 0.0 6.4 0.00 0.05 0.00 66 1016.1
20260905231601 18 319 0.0 4.8 0.00 0.05 0.00 65 1016.4
20260905230110 18 321 1.6 6.4 0.00 0.05 0.00 67 1016.4
20260905224609 18 352 3.2 4.8 0.00 0.38 0.00 71 1016.4
20260905223100 18 352 1.6 4.8 0.00 0.38 0.00 69 1016.4
20260905221606 18 0 1.6 6.4 0.00 0.38 0.00 74 1016.5
20260905220121 18 0 0.0 3.2 0.00 0.38 0.00 76 1016.4
20260905214600 18 9 0.0 6.4 0.00 1.32 0.00 78 1016.5
20260905213107 18 5 3.2 8.0 0.00 1.32 0.00 74 1016.4
20260905211609 18 316 3.2 8.0 0.00 1.32 0.00 76 1016.4
20260905210107 17 5 3.2 12.9 0.00 1.32 0.00 74 1016.5
20260905204600 17 303 3.2 9.7 0.00 1.32 0.00 76 1016.6
20260905203105 17 335 3.2 12.9 0.00 1.32 0.00 79 1016.6
20260905201618 16 311 4.8 12.9 0.00 1.32 0.00 81 1016.6
20260905200101 16 295 4.8 12.9 0.00 1.32 0.00 81 1016.7
20260905194602 16 346 3.2 12.9 0.00 1.32 0.00 85 1016.8
20260905193059 16 331 3.2 12.9 0.00 1.32 0.00 86 1017.0
20260905191605 15 344 3.2 8.0 0.00 1.32 0.00 89 1017.1
20260905190114 13 286 1.6 8.0 0.00 1.32 0.00 92 1017.3
20260905184604 13 348 1.6 8.0 0.00 1.32 0.00 93 1017.4
20260905183124 13 67 1.6 4.8 0.00 1.32 0.00 96 1017.4
20260905181606 12 0 0.0 4.8 0.00 1.32 0.00 99 1017.6
20260905180103 12 0 0.0 0.0 0.00 1.32 0.00 99 1017.6
20260905174602 12 0 0.0 0.0 0.00 1.32 0.00 100 1017.6
20260905173058 12 0 0.0 0.0 0.00 1.32 0.00 100 1017.6
20260905171604 12 0 0.0 0.0 0.00 1.32 0.00 100 1017.6
20260905170104 12 0 0.0 0.0 0.00 1.32 0.00 100 1017.6
20260905164607 12 0 0.0 0.0 0.00 1.32 0.00 100 1017.6
20260905163058 12 0 0.0 0.0 0.00 1.32 0.00 100 1017.5
20260905161605 11 0 0.0 0.0 0.00 1.32 0.00 100 1017.6
20260905160123 11 0 0.0 0.0 0.00 1.32 0.00 100 1017.8
20260905154601 11 0 0.0 0.0 0.00 1.32 0.00 100 1017.8
20260905153106 10 0 0.0 0.0 0.00 1.32 0.00 100 1017.7
20260905151610 10 0 0.0 0.0 0.00 1.32 0.00 99 1017.8
20260905150100 10 0 0.0 0.0 0.00 1.32 0.00 100 1017.8
20260905144600 9 0 0.0 0.0 0.00 1.37 0.00 99 1017.8
20260905143059 9 0 0.0 0.0 0.00 1.37 0.00 99 1017.6
20260905141605 9 0 0.0 0.0 0.00 1.37 0.00 99 1017.7
20260905140109 9 0 0.0 0.0 0.00 1.37 0.00 99 1017.6
20260905134559 9 0 0.0 0.0 0.00 1.37 0.00 99 1017.4
20260905133105 9 0 0.0 0.0 0.00 1.37 0.00 99 1017.4
20260905131609 9 0 0.0 0.0 0.00 1.37 0.00 99 1017.3
20260905130110 9 0 0.0 0.0 0.00 1.37 0.00 99 1017.1
20260905124603 9 0 0.0 0.0 0.00 1.45 0.00 99 1017.1
20260905123107 9 0 0.0 0.0 0.00 1.45 0.00 99 1017.1
20260905121601 9 0 0.0 0.0 0.00 1.45 0.00 99 1017.1
20260905120112 9 0 0.0 0.0 0.00 1.45 0.00 99 1017.0
20260905114605 9 0 0.0 0.0 0.00 1.47 0.00 99 1017.1
20260905113105 8 0 0.0 0.0 0.00 1.47 0.00 99 1016.8
20260905111613 8 0 0.0 0.0 0.00 1.47 0.00 99 1016.9
20260905110101 8 0 0.0 0.0 0.00 1.47 0.00 99 1016.9
20260905104601 8 0 0.0 1.6 0.00 1.47 0.00 99 1016.9
20260905103102 8 0 0.0 0.0 0.00 1.47 0.00 99 1017.0
20260905101605 8 0 0.0 0.0 0.00 1.47 0.00 99 1016.9
20260905094601 8 0 0.0 0.0 0.00 1.47 0.00 99 1017.0
20260905093101 9 0 0.0 0.0 0.00 1.47 0.00 99 1017.0
20260905091606 9 0 0.0 0.0 0.00 1.47 0.00 99 1016.8
20260905090059 9 0 0.0 0.0 0.00 1.47 0.00 99 1016.8
20260905084616 10 0 0.0 0.0 0.00 1.47 0.00 99 1016.6
20260905083102 10 0 0.0 0.0 0.00 1.47 0.00 99 1016.6